{"data":{"norad_id":63410,"epoch":"2026-09-20T21:18:07.966944Z","epoch_age_seconds":125371,"freshness":"FRESH","line1":"1 63410U 25065M   26263.88759221  .00010145  00000+0  37743-3 0  9990","line2":"2 63410  43.0032  84.6372 0001438 257.9138 102.1552 15.27600894 82692","mean_motion":15.27600894,"eccentricity":0.0001438,"inclination_deg":43.0032,"raan_deg":84.6372,"arg_perigee_deg":257.9138,"mean_anomaly_deg":102.1552,"bstar":0.00037743,"rev_number":8269,"period_min":94.265459365462,"perigee_km":481.9999030362,"apogee_km":483.97316216417,"semimajor_km":6861.1235326002,"source":"CELESTRAK","updated_at":"2026-09-21T09:00:34.979790Z"}}